This demonstration page uses our WeatherBlox Daily Observations layout. Learn more.

Left ArrowRight Arrow

34.02893, -84.19858

Hourly Observations for February 23, 2022

Temp ( °F °C ) Dew Point ( °F °C ) Humidity (%) Winds ( mph kmh ) Pressure ( in mb ) Visibility ( mi km ) Precip ( " mm )
12:53 am 00:53 Clear 62 16.7 58 14.4 86 86 S 9 15 30.14 1021 10 16 0.00 0.00
1:53 am 01:53 Clear 62 16.7 58 14.4 86 86 SSW 8 13 30.13 1020 10 16 0.00 0.00
2:53 am 02:53 Clear 63 17.2 58 14.4 84 84 SW 10 17 30.14 1021 10 16 0.00 0.00
3:53 am 03:53 Partly Cloudy 63 17.2 57 13.9 81 81 SW 9 15 30.13 1020 10 16 0.00 0.00
4:53 am 04:53 Partly Cloudy 62 16.7 56 13.3 80 80 SSW 8 13 30.13 1020 10 16 0.00 0.00
5:53 am 05:53 Mostly Clear 63 17.2 57 13.9 81 81 SSW 9 15 30.13 1020 10 16 0.00 0.00
6:53 am 06:53 Cloudy 64 17.8 58 14.4 81 81 WSW 13 20 30.17 1022 10 16 0.00 0.00
7:53 am 07:53 Cloudy with Light Rain 63 17.2 60 15.6 90 90 SW 14 22 30.18 1022 7 11 0.03 0.76
8:14 am 08:14 Cloudy with Rain 63 17.2 61 16.1 93 93 SW 10 17 30.17 1022 2 3 0.06 1.52
8:29 am 08:29 Cloudy with Light Rain 63 17.2 61 16.1 93 93 SW 15 24 30.18 1022 3 5 0.09 2.29
8:53 am 08:53 Cloudy with Light Rain 62 16.7 61 16.1 96 96 SW 13 20 30.18 1022 4 6 0.13 3.30
9:15 am 09:15 Cloudy with Light Rain 63 17.2 62 16.7 97 97 SW 8 13 30.18 1022 5 8 0.02 0.51
9:53 am 09:53 Cloudy with Light Rain 63 17.2 61 16.1 93 93 WSW 6 9 30.21 1023 4 6 0.03 0.76
10:53 am 10:53 Cloudy 63 17.2 62 16.7 97 97 S 7 11 30.19 1023 10 16 0.02 0.51
11:53 am 11:53 Cloudy 65 18.3 63 17.2 93 93 SSW 3 6 30.20 1023 10 16 0.00 0.00
12:53 pm 12:53 Mostly Sunny 68 20 63 17.2 84 84 SW 5 7 30.18 1022 10 16 0.00 0.00
1:53 pm 13:53 Mostly Sunny 71 21.7 61 16.1 71 71 SW 5 7 30.14 1021 10 16 0.00 0.00
2:53 pm 14:53 Sunny 73 22.8 59 15 62 62 VRB 7 11 30.12 1020 10 16 0.00 0.00
3:53 pm 15:53 Partly Cloudy 73 22.8 60 15.6 64 64 S 5 7 30.11 1020 10 16 0.00 0.00
4:53 pm 16:53 Mostly Sunny 74 23.3 58 14.4 57 57 WSW 6 9 30.10 1019 10 16 0.00 0.00
5:53 pm 17:53 Sunny 72 22.2 58 14.4 61 61 WSW 6 9 30.11 1020 10 16 0.00 0.00
6:53 pm 18:53 Cloudy 70 21.1 59 15 68 68 S 5 7 30.12 1020 10 16 0.00 0.00
7:53 pm 19:53 Mostly Cloudy 68 20 60 15.6 76 76 Calm 30.14 1021 10 16 0.00 0.00
8:53 pm 20:53 Partly Cloudy 64 17.8 60 15.6 87 87 Calm 30.15 1021 10 16 0.00 0.00
9:53 pm 21:53 Mostly Cloudy 63 17.2 61 16.1 93 93 Calm 30.15 1021 10 16 0.00 0.00
10:53 pm 22:53 Mostly Clear 64 17.8 61 16.1 90 90 S 3 6 30.14 1021 10 16 0.00 0.00
11:53 pm 23:53 Clear 61 16.1 59 15 93 93 S 3 6 30.15 1021 10 16 0.00 0.00

Powered by AerisWeather